Zurück zum Katalog

CZ-4B DEB

AktivSSO
NORAD 38312·DEBRIS·🇨🇳 China

Gestartet Dec 22, 2011 von Taiyuan Satellite Launch Center

Loading…

Nächste Überflüge (nächste 24 Stunden)

TLE

AktuellSource: Space-Track

Epoche: Sep 14, 2026, 03:21 UTC

1 38312U 11079F   26257.14016527  .00001937  00000-0  50345-3 0  9993
2 38312  98.3641 225.1351 0102804 340.7793  77.1320 14.47715517717879

Verfolge CZ-4B DEB in Echtzeit mit AllMySat

Download on the App Store